[[{"header":{"parameterUnit":"m.s-1","parameterCategory":1,"la1":30.2991,"la2":30.254,"lo1":-89.0895,"lo2":-89.0444,"dy":0.0017,"dx":0.0017,"nx":28,"ny":28,"refTime":"2024-08-06T03:00:00:Z","depth":0,"parameterNumber":2,"parameterNumberName":"U-component_of_WINDS"},"data":[0,0,0,0,0,0,0,0,0,0,0,0,0,0,0,0,0,0,0,0,0,0,0,0,0,0,0,0,0,0,0,0,0,0,0,0,0,0,0,0,0,0,0,0,0,0,0,0,0,0,0,0,0,0,0,0,0,0,3.3693,3.3693,0,3.3774,3.3775,3.3776,3.3722,3.372,3.3718,3.3715,3.38,3.3804,3.3809,0,0,0,0,0,0,0,0,0,0,0,0,0,3.3492,3.3496,3.3693,3.3694,3.3695,3.3774,3.3775,3.3776,3.3723,3.372,3.3717,3.3714,3.3798,3.3804,3.3809,0,0,0,0,0,0,0,0,0,0,0,0,0,3.3577,3.3498,3.3692,3.3677,3.3677,3.3774,3.3775,3.3777,3.3724,3.372,3.3716,3.3713,3.3796,3.3803,3.381,3.3926,0,0,3.3831,3.3834,0,0,0,0,0,0,0,0,3.3572,3.3585,3.3679,3.3679,3.3678,3.3734,3.3735,3.3827,3.3724,3.3706,3.3715,3.3711,3.3781,3.3789,3.3812,3.393,3.3934,3.3831,3.3835,3.3838,3.384,0,0,0,0,0,0,0,3.3567,3.3581,3.3725,3.368,3.368,3.3667,3.3675,3.3753,3.3763,3.3707,3.3704,3.3714,3.378,3.3806,3.3814,3.3935,3.3831,3.3837,3.3841,3.3844,3.4154,3.4158,0,0,0,0,0,0,3.3562,3.3576,3.3722,3.3727,3.3615,3.3674,3.3683,3.372,3.3762,3.3765,3.3717,3.3711,3.3796,3.3806,3.3817,3.3957,3.3838,3.3845,3.3849,3.415,3.4155,3.4159,0,0,0,0,0,0,3.3558,3.3575,3.3719,3.3651,3.3668,3.3681,3.3724,3.3724,3.3749,3.377,3.3771,3.3741,3.3794,3.3807,3.39,3.3959,3.3848,3.3854,3.4145,3.4151,3.4157,3.4237,0,0,0,0,0,0,3.3552,3.3574,3.3618,3.3652,3.3672,3.38,3.3727,3.3728,3.3761,3.3754,3.3793,3.3796,3.3792,3.389,3.3906,3.3966,3.3859,3.414,3.4148,3.4155,3.4229,3.4245,3.4259,0,0,0,0,0,3.3545,3.3637,3.362,3.3638,3.3727,3.3804,3.3815,3.3808,3.3766,3.3811,3.3824,3.3794,3.395,3.39,3.3918,3.3981,3.4136,3.4145,3.4155,3.4222,3.4242,3.4259,0,0,0,0,0,0,3.3609,3.3641,3.3623,3.3729,3.3764,3.3794,3.385,3.3829,3.3877,3.3869,3.3859,3.3868,3.3965,3.3982,3.3926,3.4096,3.4036,3.405,3.4082,3.41,3.4115,3.4109,3.3865,0,0,0,0,0,3.3636,3.3695,3.372,3.381,3.3829,3.3837,3.387,3.3862,3.3898,3.3913,3.3933,3.3969,3.4027,3.4064,3.4118,3.4231,3.424,3.4284,3.4299,3.4311,3.4323,3.4385,3.4406,3.419,3.419,3.419,0,0,3.3691,3.3715,3.3753,3.3824,3.385,3.3913,3.385,3.3918,3.3964,3.3923,3.4012,3.4028,3.4069,3.4173,3.4219,3.419,3.4384,3.4323,3.4332,3.4337,3.4397,3.4418,3.4436,3.4196,3.4195,3.4194,0,0,3.3823,3.3847,3.3926,3.3954,3.3995,3.4,3.4019,3.4053,3.4063,3.4152,3.4123,3.4178,3.4276,3.4307,3.4335,3.4481,3.4456,3.4499,3.4577,3.4638,3.4655,3.467,3.4723,3.4742,3.451,3.4511,3.4511,0,3.3886,3.3978,3.3969,3.404,3.4073,3.4039,3.4119,3.4147,3.4204,3.4227,3.4193,3.4317,3.4342,3.4453,3.4489,3.4513,3.4535,3.4494,3.4653,3.4668,3.4682,3.4733,3.4752,3.4516,3.4515,3.4514,3.4514,0,3.4055,3.412,3.4178,3.4234,3.4273,3.4349,3.4352,3.4393,3.4382,3.4391,3.4483,3.4511,3.4571,3.4597,3.4586,3.4707,3.4688,3.4654,3.4593,3.4708,3.4755,3.4774,3.4523,3.4521,3.4519,3.4518,0,0,3.4229,3.428,3.4302,3.4327,3.437,3.4421,3.4495,3.4553,3.4589,3.463,3.4693,3.4778,3.4747,3.4779,3.4772,3.4826,3.4941,3.4786,3.4786,3.4814,3.5078,3.5104,3.5126,3.4925,3.4929,3.4932,3.5075,0,3.4364,3.4494,3.4489,3.461,3.467,3.464,3.4705,3.4739,3.475,3.4803,3.4815,3.4876,3.483,3.485,3.4902,3.4916,3.4994,3.4906,3.4985,3.4987,3.4976,3.5151,3.5178,3.5311,3.5093,3.5096,3.5099,0,3.4539,3.4586,3.4714,3.475,3.4775,3.4833,3.4887,3.4938,3.4977,3.4981,3.5018,3.5003,3.508,3.5017,3.5123,3.5064,3.5096,3.5108,3.5113,3.512,3.505,3.5163,3.5353,3.5374,3.5127,3.5125,3.5123,0,3.4655,3.475,3.4838,3.4861,3.4905,3.4947,3.4967,3.5002,3.5038,3.5086,3.5109,3.5165,3.5196,3.524,3.5241,3.5195,3.5349,3.5286,3.5355,3.5355,3.5389,3.5386,3.5587,3.5409,3.5408,3.5408,3.5408,0,3.4806,3.4886,3.4891,3.4946,3.5034,3.5028,3.5116,3.5133,3.5165,3.5223,3.52,3.5255,3.5252,3.5309,3.531,3.5399,3.5413,3.5419,3.5418,3.5421,3.542,3.5442,3.5433,3.5413,3.5412,3.5411,3.541,0,3.495,3.4957,3.5052,3.5086,3.5096,3.516,3.519,3.5242,3.5251,3.5325,3.5342,3.5357,3.5422,3.5428,3.5503,3.5504,3.5612,3.5601,3.5599,3.5597,3.5666,3.566,3.5888,3.5918,3.572,3.5721,3.5723,0,3.5047,3.5107,3.5148,3.5185,3.5208,3.5268,3.5305,3.5302,3.5342,3.5391,3.5438,3.5501,3.5552,3.5658,3.5676,3.5734,3.5724,3.5801,3.5733,3.5735,3.5727,3.5723,3.573,3.5814,3.5816,3.5818,3.5819,0,3.5218,3.5219,3.5272,3.5328,3.5372,3.5416,3.5457,3.5489,3.5491,3.5536,3.5603,3.5642,3.572,3.5783,3.5841,3.5862,3.5842,3.584,3.5859,3.5863,3.586,3.5863,3.5635,3.5835,3.5833,3.5832,3.5831,3.5831,3.5342,3.5394,3.5432,3.5493,3.5523,3.5562,3.5614,3.563,3.5685,3.5748,3.5743,3.5817,3.5856,3.5931,3.5957,3.6016,3.599,3.6018,3.6025,3.6032,3.604,3.585,3.6026,3.6026,3.6025,3.6025,3.6025,0,3.5512,3.5535,3.5591,3.5649,3.5698,3.5674,3.5719,3.5761,3.5826,3.5864,3.5914,3.5992,3.6054,3.6077,3.6137,3.618,3.6172,3.6196,3.6193,3.6199,3.6058,3.6036,3.6201,3.6201,3.6201,3.6201,3.6201,3.6201,3.5607,3.5696,3.5701,3.5805,3.5827,3.59,3.5927,3.5964,3.5994,3.6081,3.6133,3.6147,3.618,3.6243,3.6299,3.6304,3.6328,3.6356,3.6358,3.6226,3.6208,3.6191,3.617,3.6361,3.6362,3.6493,3.6494,3.6495]},{"header":{"parameterUnit":"m.s-1","parameterCategory":1,"la1":30.2991,"la2":30.254,"lo1":-89.0895,"lo2":-89.0444,"dy":0.0017,"dx":0.0017,"nx":28,"ny":28,"refTime":"2024-08-06T03:00:00:Z","depth":0,"parameterNumber":3,"parameterNumberName":"V-component_of_WINDS"},"data":[0,0,0,0,0,0,0,0,0,0,0,0,0,0,0,0,0,0,0,0,0,0,0,0,0,0,0,0,0,0,0,0,0,0,0,0,0,0,0,0,0,0,0,0,0,0,0,0,0,0,0,0,0,0,0,0,0,0,-2.619,-2.6192,0,-2.6347,-2.6349,-2.6351,-2.6375,-2.6374,-2.6372,-2.6371,-2.6534,-2.6539,-2.6545,0,0,0,0,0,0,0,0,0,0,0,0,0,-2.5913,-2.5918,-2.619,-2.6192,-2.6194,-2.6347,-2.6349,-2.6351,-2.6375,-2.6374,-2.6372,-2.637,-2.6532,-2.6538,-2.6545,0,0,0,0,0,0,0,0,0,0,0,0,0,-2.6048,-2.592,-2.619,-2.6224,-2.6229,-2.6347,-2.6349,-2.6352,-2.6376,-2.6374,-2.6371,-2.6369,-2.653,-2.6538,-2.6546,-2.6641,0,0,-2.6572,-2.6576,0,0,0,0,0,0,0,0,-2.6041,-2.6058,-2.6217,-2.6222,-2.6228,-2.6339,-2.6311,-2.6449,-2.6376,-2.632,-2.6371,-2.6368,-2.6471,-2.6484,-2.6518,-2.6648,-2.6655,-2.6573,-2.6578,-2.6582,-2.6584,0,0,0,0,0,0,0,-2.6031,-2.6052,-2.6252,-2.622,-2.6226,-2.6233,-2.625,-2.6337,-2.6405,-2.6325,-2.6327,-2.6345,-2.6473,-2.651,-2.6522,-2.6658,-2.6573,-2.658,-2.6585,-2.6589,-2.6874,-2.6877,0,0,0,0,0,0,-2.6015,-2.6044,-2.6247,-2.6257,-2.6127,-2.624,-2.6258,-2.6306,-2.6405,-2.6418,-2.6347,-2.6346,-2.6497,-2.6512,-2.6528,-2.6646,-2.6581,-2.6589,-2.6594,-2.6872,-2.6875,-2.6878,0,0,0,0,0,0,-2.6009,-2.6033,-2.6241,-2.6151,-2.6178,-2.6247,-2.6299,-2.631,-2.6347,-2.6421,-2.6434,-2.6372,-2.6495,-2.6516,-2.6613,-2.6652,-2.6593,-2.6601,-2.6869,-2.6873,-2.6876,-2.6882,0,0,0,0,0,0,-2.6001,-2.6031,-2.6067,-2.6152,-2.6183,-2.6322,-2.6302,-2.6314,-2.6361,-2.6361,-2.6448,-2.646,-2.6495,-2.66,-2.6621,-2.6662,-2.6608,-2.6866,-2.6871,-2.6875,-2.6878,-2.6885,-2.6891,0,0,0,0,0,-2.5991,-2.6062,-2.6068,-2.6093,-2.6229,-2.6324,-2.6342,-2.6381,-2.6364,-2.6401,-2.6449,-2.6457,-2.6644,-2.6609,-2.6634,-2.6678,-2.6864,-2.6869,-2.6875,-2.6876,-2.6884,-2.6891,0,0,0,0,0,0,-2.5981,-2.6074,-2.6082,-2.6182,-2.6245,-2.6328,-2.6376,-2.6388,-2.6458,-2.6455,-2.6501,-2.652,-2.6615,-2.6656,-2.6616,-2.6775,-2.6753,-2.6763,-2.6745,-2.6753,-2.676,-2.6748,-2.6615,0,0,0,0,0,-2.599,-2.6059,-2.6137,-2.6218,-2.6249,-2.6307,-2.635,-2.6375,-2.6442,-2.6469,-2.6524,-2.6589,-2.6663,-2.671,-2.6782,-2.6885,-2.6904,-2.6927,-2.6934,-2.6938,-2.6947,-2.7006,-2.7017,-2.6896,-2.6896,-2.6896,0,0,-2.601,-2.6069,-2.611,-2.6217,-2.6269,-2.634,-2.6329,-2.6405,-2.6459,-2.648,-2.6575,-2.6618,-2.6694,-2.6794,-2.6841,-2.6832,-2.6985,-2.6946,-2.6949,-2.6955,-2.7013,-2.7024,-2.7034,-2.69,-2.69,-2.6899,0,0,-2.6083,-2.6134,-2.6208,-2.626,-2.6338,-2.6376,-2.6394,-2.6476,-2.6505,-2.66,-2.6618,-2.6683,-2.6809,-2.6863,-2.6906,-2.7001,-2.7011,-2.7023,-2.7056,-2.7113,-2.7122,-2.7131,-2.7165,-2.7177,-2.7031,-2.7031,-2.7032,0,-2.6098,-2.6205,-2.6244,-2.632,-2.6367,-2.6389,-2.6465,-2.6514,-2.6611,-2.6644,-2.6632,-2.679,-2.6843,-2.6957,-2.698,-2.7014,-2.7037,-2.7013,-2.7117,-2.7127,-2.7135,-2.7169,-2.7182,-2.7032,-2.7032,-2.7032,-2.7032,0,-2.6221,-2.6295,-2.6345,-2.6438,-2.6491,-2.6566,-2.6618,-2.6667,-2.6687,-2.6726,-2.6824,-2.6889,-2.6974,-2.7003,-2.7023,-2.712,-2.7112,-2.7108,-2.7086,-2.7147,-2.7179,-2.7192,-2.7034,-2.7033,-2.7033,-2.7033,0,0,-2.6291,-2.6405,-2.6423,-2.6466,-2.6554,-2.6613,-2.669,-2.6773,-2.6814,-2.6881,-2.6947,-2.7053,-2.7051,-2.7101,-2.7128,-2.7177,-2.7249,-2.7168,-2.717,-2.7181,-2.736,-2.7363,-2.7377,-2.7256,-2.7259,-2.7261,-2.7354,0,-2.6375,-2.6511,-2.6549,-2.6664,-2.6734,-2.6757,-2.6824,-2.6886,-2.6925,-2.6991,-2.7035,-2.711,-2.71,-2.7131,-2.718,-2.7229,-2.7285,-2.7223,-2.7319,-2.7322,-2.7299,-2.7394,-2.7397,-2.7482,-2.7367,-2.7369,-2.7371,0,-2.649,-2.6559,-2.6681,-2.6761,-2.6792,-2.6851,-2.6931,-2.6993,-2.7065,-2.709,-2.7146,-2.7169,-2.725,-2.7224,-2.7338,-2.7295,-2.7336,-2.7366,-2.7371,-2.7381,-2.735,-2.7408,-2.751,-2.7522,-2.7391,-2.7389,-2.7388,0,-2.653,-2.6654,-2.6743,-2.6779,-2.6874,-2.6916,-2.6958,-2.7027,-2.7075,-2.7145,-2.7177,-2.7255,-2.7299,-2.736,-2.7404,-2.738,-2.7515,-2.7491,-2.7539,-2.7538,-2.7566,-2.7564,-2.7677,-2.7592,-2.7592,-2.7592,-2.7591,0,-2.662,-2.6694,-2.6762,-2.6817,-2.6901,-2.6945,-2.7027,-2.707,-2.7132,-2.7196,-2.7221,-2.7281,-2.7335,-2.7403,-2.7438,-2.7528,-2.7547,-2.7571,-2.7579,-2.7569,-2.7566,-2.7597,-2.7593,-2.7595,-2.7594,-2.7594,-2.7593,0,-2.6679,-2.6727,-2.6827,-2.6909,-2.6931,-2.699,-2.7061,-2.7116,-2.7156,-2.7237,-2.7259,-2.7323,-2.7405,-2.7454,-2.7557,-2.7581,-2.768,-2.7686,-2.7656,-2.766,-2.7705,-2.77,-2.7842,-2.7864,-2.7764,-2.7764,-2.7765,0,-2.6733,-2.6791,-2.6879,-2.6924,-2.6966,-2.7038,-2.7087,-2.7132,-2.7182,-2.7268,-2.7313,-2.7396,-2.7465,-2.7594,-2.765,-2.7729,-2.7738,-2.7782,-2.775,-2.7738,-2.774,-2.7736,-2.7742,-2.7788,-2.7788,-2.7789,-2.779,0,-2.6825,-2.6846,-2.6916,-2.6994,-2.7051,-2.7115,-2.7179,-2.7214,-2.7271,-2.7326,-2.7409,-2.7462,-2.7568,-2.765,-2.7735,-2.7779,-2.7795,-2.7799,-2.7815,-2.7805,-2.7786,-2.7798,-2.7671,-2.7796,-2.7795,-2.7795,-2.7795,-2.7794,-2.6884,-2.6937,-2.7007,-2.7084,-2.7136,-2.7196,-2.7251,-2.7299,-2.7369,-2.7457,-2.748,-2.7568,-2.7639,-2.7754,-2.78,-2.787,-2.7863,-2.7885,-2.7891,-2.7896,-2.7897,-2.7774,-2.7885,-2.7885,-2.7885,-2.7885,-2.7885,0,-2.6978,-2.7024,-2.7094,-2.7182,-2.7243,-2.7251,-2.7323,-2.7373,-2.745,-2.7514,-2.7581,-2.7677,-2.7757,-2.782,-2.7903,-2.7947,-2.7956,-2.7967,-2.7965,-2.7975,-2.7898,-2.7877,-2.7958,-2.7958,-2.7958,-2.7958,-2.7958,-2.7958,-2.7034,-2.7123,-2.7153,-2.7269,-2.7316,-2.7401,-2.7441,-2.7496,-2.7548,-2.7654,-2.772,-2.776,-2.7825,-2.7913,-2.7987,-2.8004,-2.8033,-2.8043,-2.8061,-2.7988,-2.798,-2.7972,-2.7953,-2.8049,-2.8049,-2.8132,-2.8133,-2.8134]}]]